DW6903 Weather Reports


time (UTC)temp
C
wind
direction
speed
KPH
gust
KPH
rain 1hr
cm
rain 24hr
cm
rain mn
cm
humidity
%
barometer
mb
20260505052703 12 183 9.7 17.7 0.00 0.00 0.00 65 1008.5
20260505051803 13 184 11.3 25.7 0.00 0.00 0.00 64 1008.5
20260505050904 12 182 8.0 20.9 0.00 0.00 0.00 64 1008.5
20260505050110 13 177 9.7 22.5 0.00 0.00 0.00 64 1008.6
20260505040904 13 178 9.7 22.5 0.00 0.00 0.00 60 1008.5
20260505040110 13 176 9.7 22.5 0.00 0.00 0.00 60 1008.4
20260505035403 13 179 9.7 17.7 0.00 0.00 0.00 59 1008.3
20260505034503 13 179 9.7 33.8 0.00 0.00 0.00 59 1008.4
20260505033603 13 185 11.3 20.9 0.00 0.00 0.00 58 1008.4
20260505032809 13 180 9.7 20.9 0.00 0.00 0.00 58 1008.3
20260505031803 14 177 12.9 29.0 0.00 0.00 0.00 57 1008.2
20260505030904 14 180 11.3 27.4 0.00 0.00 0.00 56 1008.2
20260505030003 14 184 9.7 20.9 0.00 0.00 0.00 55 1008.3
20260505025403 14 184 9.7 20.9 0.00 0.00 0.00 55 1008.3
20260505024503 15 175 9.7 25.7 0.00 0.00 0.00 55 1008.3
20260505023604 15 167 11.3 20.9 0.00 0.00 0.00 54 1008.4
20260505022703 15 177 12.9 27.4 0.00 0.00 0.00 53 1008.3
20260505021803 15 175 11.3 22.5 0.00 0.00 0.00 53 1008.3
20260505020903 15 173 12.9 32.2 0.00 0.00 0.00 52 1008.3
20260505020003 15 176 12.9 25.7 0.00 0.00 0.00 52 1008.3
20260505015403 15 175 12.9 30.6 0.00 0.00 0.00 52 1008.2
20260505014503 15 171 9.7 27.4 0.00 0.00 0.00 52 1008.0
20260505013603 16 174 11.3 27.4 0.00 0.00 0.00 51 1007.9
20260505012704 16 177 12.9 30.6 0.00 0.00 0.00 50 1007.8
20260505011803 16 176 9.7 25.7 0.00 0.00 0.00 49 1007.5
20260505010904 16 186 12.9 30.6 0.00 0.00 0.00 49 1007.4
20260505010003 16 184 14.5 38.6 0.00 0.00 0.00 48 1007.2
20260505005509 17 183 16.1 37.0 0.00 0.00 0.00 47 1007.1
20260505004504 17 181 17.7 43.5 0.00 0.00 0.00 47 1006.9
20260505003608 17 179 17.7 32.2 0.00 0.00 0.00 46 1006.6
20260505002708 17 178 16.1 35.4 0.00 0.00 0.00 45 1006.4
20260505001910 17 176 16.1 35.4 0.00 0.00 0.00 45 1006.2
20260505000903 18 179 16.1 38.6 0.00 0.00 0.00 43 1006.0
20260505000004 18 187 11.3 37.0 0.00 0.00 0.00 41 1005.7
20260504235403 19 180 6.4 20.9 0.00 0.00 0.00 38 1005.5
20260504234503 19 203 4.8 12.9 0.00 0.00 0.00 36 1005.2
20260504233709 20 216 6.4 16.1 0.00 0.00 0.00 35 1005.2
20260504232704 20 214 11.3 24.1 0.00 0.00 0.00 35 1005.1
20260504231910 20 219 8.0 24.1 0.00 0.00 0.00 34 1005.0
20260504230904 20 206 9.7 20.9 0.00 0.00 0.00 34 1004.9
20260504230110 21 201 8.0 17.7 0.00 0.00 0.00 34 1004.7
20260504225403 21 197 8.0 16.1 0.00 0.00 0.00 34 1004.7
20260504224503 21 212 11.3 29.0 0.00 0.00 0.00 34 1004.7
20260504223710 21 206 11.3 29.0 0.00 0.00 0.00 34 1004.6
20260504222809 21 201 9.7 20.9 0.00 0.00 0.00 34 1004.5
20260504221803 21 214 12.9 27.4 0.00 0.00 0.00 34 1004.6
20260504220903 21 219 14.5 30.6 0.00 0.00 0.00 34 1004.6
20260504220003 21 217 14.5 27.4 0.00 0.00 0.00 33 1004.5
20260504215403 21 221 12.9 27.4 0.00 0.00 0.00 32 1004.6
20260504214503 21 213 11.3 27.4 0.00 0.00 0.00 33 1004.5
20260504213603 21 226 12.9 30.6 0.00 0.00 0.00 33 1004.6
20260504212703 21 211 11.3 33.8 0.00 0.00 0.00 33 1004.5
20260504211803 21 218 14.5 33.8 0.00 0.00 0.00 33 1004.6
20260504210904 21 213 11.3 25.7 0.00 0.00 0.00 33 1004.6
20260504210003 21 213 11.3 24.1 0.00 0.00 0.00 33 1004.6
20260504205403 21 214 11.3 22.5 0.00 0.00 0.00 33 1004.6
20260504204504 21 230 12.9 33.8 0.00 0.00 0.00 33 1004.5
20260504203603 21 209 12.9 29.0 0.00 0.00 0.00 33 1004.6
20260504202704 20 202 11.3 25.7 0.00 0.00 0.00 32 1004.5
20260504201803 20 204 11.3 33.8 0.00 0.00 0.00 33 1004.5
20260504200903 20 213 17.7 40.2 0.00 0.00 0.00 32 1004.5
20260504200003 20 203 14.5 38.6 0.00 0.00 0.00 32 1004.7
20260504195404 20 212 14.5 30.6 0.00 0.00 0.00 31 1004.6
20260504194503 20 213 17.7 35.4 0.00 0.00 0.00 32 1004.6
20260504193604 21 226 16.1 40.2 0.00 0.00 0.00 31 1004.7
20260504192703 20 216 19.3 43.5 0.00 0.00 0.00 32 1004.6
20260504191803 21 204 19.3 45.1 0.00 0.00 0.00 32 1004.7
20260504190903 20 191 16.1 41.8 0.00 0.00 0.00 31 1004.8
20260504190109 20 202 16.1 33.8 0.00 0.00 0.00 32 1004.8
20260504185404 20 228 19.3 37.0 0.00 0.00 0.00 34 1004.8
20260504184505 20 210 11.3 32.2 0.00 0.00 0.00 31 1004.9
20260504183603 20 208 16.1 40.2 0.00 0.00 0.00 32 1005.0
20260504182810 20 219 16.1 38.6 0.00 0.00 0.00 32 1005.1
20260504181803 20 206 19.3 41.8 0.00 0.00 0.00 32 1005.1
20260504180903 20 189 17.7 41.8 0.00 0.00 0.00 33 1005.0
20260504180004 20 206 19.3 46.7 0.00 0.00 0.00 33 1005.1
20260504175404 20 204 17.7 46.7 0.00 0.00 0.00 33 1005.1
20260504174503 20 214 19.3 48.3 0.00 0.00 0.00 34 1005.3
20260504173603 19 215 20.9 41.8 0.00 0.00 0.00 35 1005.5
20260504172703 20 202 17.7 43.5 0.00 0.00 0.00 34 1005.5
20260504171804 19 197 19.3 43.5 0.00 0.00 0.00 34 1005.5
20260504170904 18 199 19.3 41.8 0.00 0.00 0.00 35 1005.4
20260504150903 17 216 16.1 33.8 0.00 0.00 0.00 42 1006.9
20260504140904 16 203 14.5 32.2 0.00 0.00 0.00 45 1007.5
20260504130109 13 218 14.5 33.8 0.00 0.00 0.00 47 1008.1
20260504090109 7 189 6.4 14.5 0.00 0.00 0.00 58 1008.4
20260504081803 7 185 3.2 11.3 0.00 0.00 0.00 59 1008.7
20260504080903 6 191 4.8 14.5 0.00 0.00 0.00 59 1008.7